User: anonymous   Login
Location: Arran
(51.9410°N, 101.7372°W)
Time: 16:34:52
(UTC+00:00)
Language:

COSMOS 2251 DEB - Orbit

View from above orbital plane
View from above orbital plane
View from above satellite
View from above satellite

Ground track
Ground track

The orbit data is extracted from the following two-line orbital elements,

1 33760U 93036H   24148.73466973  .00000381  00000-0  14282-3 0  9996
2 33760  74.0323 236.0750 0019501 115.0735   4.9118 14.34990714800329
Epoch (UTC): 27 May 2024 17:37:55
Eccentricity: 0.0019501
inclination: 74.0323°
perigee height: 761 km
apogee height: 789 km
right ascension of ascending node: 236.0750°
argument of perigee: 115.0735°
revolutions per day: 14.34990714
mean anomaly at epoch: 4.9118°
orbit number at epoch: 80032

The dashed part of the orbit path shows where the satellite is in the earth's shadow,  

DLR